Location: Gajan
(43.0218°N, 1.1244°E)
Time: 03:24:31
(UTC+00:00)

ARIANE 5 R/B - Pass Details

Date: 22 April 2021
Orbit: 620 x 656 km, 98.1° (Epoch: 11 May)

Event Time Altitude Azimuth Distance (km) Brightness Sun altitude
Exits shadow 21:41:37 50° 267° (W) 811 3.2 -26.8°
Drops below altitude 10° 21:45:45 10° 336° (NNW) 2,016 6.1 -27.2°
Sets 21:48:00 0° 342° (NNW) 2,923 7.2 -27.4°
